Regional Weather Roundup
Issued by NWS Mobile, AL

Home | Current Version | Previous Version | Text Only | Print | Product List | Glossary On
Versions: 1 2 3 4 5 6 7 8 9 10 11 12 13 14 15 16 17 18 19 20 21 22 23 24 25 26 27 28 29 30 31 32 33 34 35 36 37 38 39 40 41 42 43 44 45 46 47 48 49 50
000
ASUS44 KMOB 280410
RWRMOB
REGIONAL WEATHER ROUNDUP
NATIONAL WEATHER SERVICE MOBILE AL
1000 PM CST THU NOV 27 2014

NOTE: "FAIR" INDICATES FEW OR NO CLOUDS BELOW 12,000 FEET WITH NO
      SIGNIFICANT WEATHER AND/OR OBSTRUCTIONS TO VISIBILITY.

  * THESE STATIONS ARE PART OF THE UNIVERSITY OF SOUTH ALABAMA
    MESONET AND ARE NOT UNDER NWS OR FAA QUALITY CONTROL.

ALZ061>064-280500-
COASTAL ALABAMA

CITY           SKY/WX    TMP DP  RH WIND       PRES   REMARKS
MOBILE REG APT CLEAR     40  32  73 N6        30.45R
BROOKLEY FIELD CLEAR     46  33  60 N9        30.46S
USA CAMPUS*      N/A     41  32  70 CALM      30.46S
DOG RIVER*     NOT AVBL


CITY           SKY/WX    TMP DP  RH WIND       PRES   REMARKS
MOUNT VERNON*    N/A    N/A N/A N/A NW3       30.46S
SARALAND*      NOT AVBL
BAY MINETTE*   NOT AVBL
LOXLEY*          N/A     39  32  75 N5        30.44S
ROBERTSDALE*     N/A     39  32  75 N2        30.44R
FAIRHOPE*        N/A     43  32  65 N6        30.43S
ELBERTA*         N/A     43  32  65 N7        30.43S
FOLEY*           N/A    N/A N/A N/A NW2       30.40R
GRAND BAY*       N/A     41  32  70 NE3       30.42S
DAUPHIN ISLND* NOT AVBL
BON SCOUR NWR* NOT AVBL
GULF SHORES    CLEAR     42  32  67 N5        30.43S

$$

ALZ051>060-280500-
INTERIOR SOUTHWEST AND SOUTH CENTRAL ALABAMA

CITY           SKY/WX    TMP DP  RH WIND       PRES   REMARKS
GREENVILLE     CLEAR     38  29  70 N6        30.44R
EVERGREEN      CLEAR     39  31  72 N3        30.45S
CASTLEBERRY*   NOT AVBL
ATMORE*          N/A    N/A N/A N/A N6        30.45S
DIXIE*           N/A     39  34  81 CALM      30.40S
ANDALUSIA/OPP  CLEAR     43  31  62 N7        30.44R
ANDALUSIA*       N/A    N/A N/A N/A NW9       30.42R
FLORALA APT    CLEAR     41  31  67 CALM      30.45R
FLORALA*         N/A    N/A N/A N/A NW2       30.40R

$$

FLZ001>006-280500-
WESTERN FLORIDA PANHANDLE

CITY           SKY/WX    TMP DP  RH WIND       PRES   REMARKS
PENSACOLA      CLEAR     44  32  62 N9        30.43S
NAS PENSACOLA  CLEAR     45  32  60 N13       30.43S
MILTON         CLEAR     41  31  67 N6        30.44R
WHTNG S FIELD  CLEAR     44  31  60 N8        30.44R


CITY           SKY/WX    TMP DP  RH WIND       PRES   REMARKS
WALNUT HILL*   NOT AVBL
JAY*             N/A    N/A N/A N/A N2        30.45R
DUKE FIELD     CLEAR     41  32  69 N7        30.43R
CRESTVIEW      CLEAR     42  32  67 N5        30.45R
VALPARAISO     CLEAR     42  32  66 N7        30.43R
DESTIN         CLEAR     46  34  62 N12       30.42S

$$

MSZ076-079-280500-
INTERIOR SOUTHEAST MISSISSIPPI

CITY           SKY/WX    TMP DP  RH WIND       PRES   REMARKS
LEAKESVILLE*     N/A    N/A N/A N/A NE5       30.44S
AGRICOLA*      NOT AVBL

$$

MARINE OBSERVATIONS

STATION/POSITION TIME  TEMP    WIND        PRES    WAVE
                       AIR SEA DIR/SP/G            HT/PER
                 (UTC) (F)     (DEG/KT/KT) (MB)    (FT/S)
PASCAGOULA       0400   47      20/  8/ 11 1030.5F
PETIT BOIS ISLND 0400   50      30/ 20/ 23 1030.5F
GRAND BAY        0300   45      10/  5     1031.0S
KATRINA CUT      0300   50      20/ 17     1030.8F
CEDAR POINT      0300   47     360/  9     1031.2R
E DAUPHIN ISLAND 0256   51      20/ 20/ 22 1030.5F
MIDDLE BAY LIGHT 0300   49      20/ 17     1030.5R
USCG MOBILE BAY  0400   45 58   10/  6/  9 1029.9F
STATE DOCKS      0400   45 58              1030.7S
MEAHER PARK      0300   45     360/  4     1031.8R
WEEKS BAY        0300   40                   N/A
FORT MORGAN      0400   49      30/ 23/ 25 1029.8F
12 S ORANGE BCH  0400   51 64  360/ 19/ 23 1029.7R   3/ 4
PENSACOLA BAY    0400   46 59   10/  6/  9 1030.8F
64 S DAUPHIN ISL 0332   57 71   20/ 19/ 23 1030.4R   5/ 6
67 S FORT MORGAN 0200   58      10/ 21     1029.1R

$$

SELECTED LOCATIONS ACROSS THE REGION

CITY           SKY/WX    TMP DP  RH WIND       PRES   REMARKS
NEW ORLEANS    CLEAR     51  34  52 NE10      30.45R
GULFPORT       CLEAR     43  33  68 N6        30.44F
PASCAGOULA AP  CLEAR     39  32  76 CALM      30.45S
PASCAGOULA*      N/A    N/A N/A N/A N5        30.44S
HATTIESBURG    CLEAR     36  33  89 CALM      30.46R
LAUREL         CLEAR     37  28  70 MISG      30.45S
MERIDIAN       CLEAR     31  29  92 NW3       30.47S
JACKSON        CLEAR     34  30  85 CALM      30.47S
MONTGOMERY     CLEAR     37  30  75 W6        30.46R
TROY           CLEAR     37  29  72 N6        30.44R
KINSTON*       NOT AVBL
GENEVA*          N/A    N/A N/A N/A CALM      30.45R
ASHFORD*         N/A    N/A N/A N/A NW9       30.42R
DOTHAN         CLEAR     39  32  76 N7        30.45R
PANAMA CITY    CLEAR     42  33  70 N8        30.40R

$$



USA.gov is the U.S. government's official web portal to all federal, state and local government web resources and services.